Dewpoint
8 9 10 9 11 11 10 9 7 7 4 3 5 5 5 3 3 1 0 3 6 6 6 6 6 7 7 7 5 6 5 4 3 1 -2 -2 3 7
7 10 8 7 9 10 10 7 6 -0 0 1 2 4 3 1 0 -0 1 3 4 5 5 6 7 7 5 4 4 5 4 3 2 -0 3 -1 0 7
6 7 8 7 8 8 7 5 -1 -1 -2 0 1 1 0 -1 -1 0 1 3 4 4 4 6 6 6 6 6 6 6 4 3 2 3 5 2 4 7
8 7 7 7 7 7 4 -0 -1 -1 -1 -1 -1 -1 -1 -0 -0 -1 -1 2 4 3 3 4 4 5 5 5 5 5 4 3 1 5 7 6 7 6
6 7 7 7 7 3 -0 -1 -0 -1 -1 -1 -0 -0 -0 -1 -1 -1 -1 -1 1 4 3 3 5 5 5 5 5 4 3 2 1 2 5 5 4 4
7 7 7 7 3 0 -1 -1 -1 -1 -0 0 0 -0 -1 -1 -2 -3 -2 -1 1 3 3 3 4 4 4 4 4 3 3 1 1 2 2 3 4 4
10 7 7 2 0 -1 -0 -1 -0 -0 0 0 -0 -1 -1 -2 -2 -2 -2 -0 1 2 2 3 3 3 3 3 3 3 2 1 1 1 3 3 3 3
7 7 2 0 -1 -0 -0 -0 0 1 0 -0 -1 -1 -1 -2 -2 -2 -1 -0 0 1 3 3 3 2 2 2 2 2 2 1 0 1 2 2 2 2
6 2 0 -0 -0 -0 0 1 0 -0 -0 -1 -1 -1 -1 -1 -2 -1 -1 -0 -0 0 1 2 2 2 2 2 2 2 1 1 -0 -0 1 1 1 1
1 -0 -0 -0 0 1 0 0 -0 -1 -1 -1 -1 -1 -1 -1 -1 -1 -1 -1 -1 -0 0 1 2 2 2 2 2 1 1 0 -0 -0 0 1 1 1
0 -0 0 1 1 -0 -1 -1 -1 -1 -1 -1 -1 -1 -1 -1 -1 -1 -1 -1 -1 -0 1 0 1 1 1 1 1 1 1 0 -1 -1 -1 -2 -1 -2
0 1 1 0 -1 -2 -2 -2 -2 -2 -1 -1 -1 -1 -1 -1 -2 -2 -1 -1 -0 -0 0 0 0 0 0 1 1 0 0 -1 -1 -1 -4 -6 -9 -11
1 1 -0 -1 -2 -2 -2 -2 -2 -2 -2 -2 -2 -2 -2 -2 -2 -2 -3 -3 -2 -1 -1 -1 -1 -0 -1 -0 -1 -2 -3 -4 -2 -2 -5 -9 -17 -19
1 -0 -1 -2 -1 -1 -2 -2 -2 -2 -1 -2 -2 -2 -2 -3 -4 -5 -5 -5 -6 -6 -4 -2 -2 -1 -1 -1 -1 -2 -5 -3 -6 -6 -8 -13 -17 -19
0 -0 -1 -1 -1 -1 -1 -2 -2 -2 -2 -2 -3 -4 -5 -8 -12 -14 -16 -16 -15 -13 -13 -12 -4 -2 -2 -2 -2 -2 -6 -9 -6 -14 -13 -16 -17 -17
0 -0 -1 -1 -1 -1 -1 -2 -2 -2 -2 -2 -3 -7 -10 -11 -14 -18 -19 -19 -21 -20 -20 -19 -17 -7 -3 -3 -3 -3 -4 -14 -15 -16 -16 -16 -15 -14
0 0 -0 -0 -0 -1 -1 -2 -2 -2 -2 -3 -3 -6 -11 -15 -17 -19 -20 -20 -20 -20 -20 -20 -19 -18 -14 -8 -6 -7 -8 -13 -18 -16 -16 -18 -16 -13
-0 -0 -0 -0 -0 -0 -0 -1 -2 -2 -3 -3 -3 -4 -8 -15 -16 -18 -21 -21 -20 -20 -20 -18 -19 -19 -18 -18 -16 -16 -16 -17 -17 -16 -15 -15 -15 -15
-1 -1 -0 -0 -0 -1 -0 -1 -2 -2 -3 -3 -3 -4 -9 -12 -12 -15 -18 -21 -21 -19 -19 -17 -18 -18 -16 -17 -18 -18 -19 -19 -15 -14 -15 -15 -17 -16
-2 -2 -1 -1 -1 -1 -1 -1 -1 -2 -2 -3 -3 -4 -4 -9 -10 -13 -16 -19 -20 -19 -18 -19 -19 -18 -17 -15 -13 -14 -14 -14 -16 -16 -16 -16 -16 -16
-2 -2 -2 -2 -2 -2 -2 -2 -2 -2 -2 -3 -3 -4 -4 -8 -9 -11 -14 -16 -17 -19 -19 -19 -18 -14 -14 -13 -15 -17 -15 -15 -15 -18 -18 -16 -16 -15
-3 -2 -2 -2 -2 -2 -2 -2 -2 -2 -3 -3 -3 -3 -4 -4 -5 -6 -9 -14 -14 -15 -16 -17 -15 -14 -15 -16 -16 -16 -16 -16 -16 -17 -18 -17 -15 -13
-3 -3 -3 -3 -3 -3 -3 -3 -3 -3 -3 -3 -3 -3 -4 -4 -4 -5 -5 -7 -11 -12 -13 -14 -14 -16 -17 -16 -15 -18 -17 -17 -16 -16 -17 -18 -17 -16
Wind_Speed
13 9 10 11 11 11 12 11 10 8 6 7 6 9 12 14 16 17 16 13 11 11 11 10 14 16 14 17 19 16 18 18 19 22 23 23 24 25
9 9 11 14 12 12 14 14 13 11 10 10 12 13 18 20 19 18 16 14 12 11 11 14 16 18 18 20 20 18 16 18 20 19 15 18 23 26
17 17 15 14 14 15 15 14 12 11 12 12 15 17 19 19 19 17 16 14 11 9 13 16 19 20 21 21 19 15 14 12 16 18 12 13 18 26
17 27 21 18 17 16 15 13 12 11 12 13 15 17 20 20 19 18 18 16 15 11 13 16 19 18 17 16 15 13 11 9 6 7 9 23 31 33
25 25 22 19 19 17 14 12 12 14 14 15 18 18 19 19 18 18 19 20 18 17 13 17 17 18 18 16 15 13 8 8 9 12 13 8 11 3
36 32 29 21 19 16 14 15 15 15 16 16 18 18 18 17 18 19 18 18 16 16 16 17 17 17 16 16 14 10 8 7 9 13 16 15 13 10
27 25 22 20 17 15 15 16 16 17 17 18 18 17 16 16 17 17 17 15 13 15 17 17 18 20 19 16 13 11 10 7 9 11 14 15 16 13
23 22 21 18 18 17 17 17 18 18 19 20 19 20 19 18 17 14 14 12 14 12 13 14 17 18 16 15 13 12 11 10 9 14 18 18 16 15
22 21 21 20 18 18 18 19 19 19 20 20 20 19 19 18 16 13 11 13 15 14 15 16 16 16 16 16 15 15 14 12 10 14 19 19 19 17
20 20 20 19 19 18 18 19 19 20 20 20 20 19 18 17 15 13 12 12 13 16 16 17 17 17 16 17 16 16 15 14 12 15 18 18 20 22
21 21 19 17 17 17 16 17 18 19 20 20 19 18 16 14 13 13 13 14 13 14 14 14 18 18 16 15 14 15 16 15 14 16 16 17 18 19
21 19 18 17 16 15 13 13 13 15 17 18 17 16 15 14 13 13 13 13 13 15 14 12 15 15 12 15 14 14 16 15 16 17 18 17 18 19
21 20 19 17 15 12 12 11 13 13 13 15 16 15 15 14 14 14 13 12 13 16 14 13 12 11 13 12 8 10 12 12 16 17 18 17 17 19
23 21 19 17 15 14 13 13 15 16 15 14 14 14 14 14 14 14 14 14 14 14 16 15 15 16 16 15 13 12 14 14 14 17 17 17 18 17
23 22 21 20 19 17 16 16 17 16 15 15 12 12 12 14 13 13 14 15 15 15 16 16 15 15 17 17 17 14 14 11 14 13 17 18 17 18
28 27 26 25 23 21 21 19 17 15 15 14 13 13 12 13 12 12 12 16 15 15 15 15 15 16 18 19 19 18 14 9 5 11 18 18 18 18
27 29 30 31 30 26 23 20 16 16 15 14 15 16 14 12 12 12 13 14 15 14 13 13 14 16 18 19 21 19 15 13 12 12 13 18 19 18
25 29 31 32 31 25 23 20 18 16 14 15 17 16 17 13 13 13 13 14 14 13 13 13 13 14 17 19 19 17 16 13 12 15 14 12 19 19
25 29 29 30 28 25 22 20 18 14 15 16 14 17 16 15 15 13 12 13 12 12 12 14 13 14 15 17 15 10 12 13 14 15 15 16 14 11
26 28 27 27 25 23 20 17 14 13 14 15 16 16 18 17 16 13 12 11 10 12 14 13 14 14 15 16 14 10 9 10 12 16 17 17 17 17
23 24 26 25 25 24 22 20 17 16 14 15 15 15 15 18 17 14 13 11 13 14 15 12 8 12 14 17 19 13 11 12 11 12 15 19 18 19
25 26 26 25 24 24 22 21 21 21 18 18 17 15 14 15 18 16 16 14 15 15 13 10 12 15 17 18 16 13 12 12 13 14 14 17 17 13
22 25 27 27 25 24 23 22 23 24 23 22 21 19 18 17 17 17 18 18 18 17 15 13 14 17 16 17 16 14 15 14 13 16 17 16 16 18
Wind_Direction
226 249 236 256 249 229 240 257 257 265 249 265 259 270 278 294 299 305 305 296 291 301 298 279 262 264 257 274 303 295 306 298 293 290 274 251 236 226
233 259 275 265 255 240 247 256 262 256 247 257 265 274 287 295 298 299 296 294 283 279 272 262 253 267 275 277 284 286 299 314 312 298 273 238 219 210
237 265 263 253 248 252 258 258 257 261 271 262 267 277 288 293 294 296 294 292 282 294 276 268 262 271 275 278 285 288 300 313 315 320 260 202 203 202
224 252 253 248 251 256 254 258 264 272 274 279 279 281 285 291 297 297 301 291 277 264 264 268 263 268 274 274 279 276 289 296 275 317 156 150 173 191
235 249 251 247 250 248 252 257 264 274 280 282 282 285 294 302 303 303 296 292 286 279 272 262 264 268 262 273 266 268 273 280 240 230 237 207 175 211
238 239 240 240 241 248 251 256 264 273 277 282 288 294 297 299 308 312 304 291 283 277 273 268 264 265 264 264 255 255 267 281 296 250 249 242 251 246
221 224 232 236 241 248 253 263 269 274 282 285 286 290 288 291 296 306 309 301 286 277 267 265 262 265 261 254 255 256 265 275 271 256 232 240 249 255
225 226 230 235 238 242 252 260 267 275 278 280 283 286 290 292 295 302 305 298 286 271 270 268 257 252 257 258 257 259 256 266 266 253 231 232 240 234
223 226 230 232 237 247 256 264 272 276 279 279 281 282 284 287 290 296 296 291 285 275 269 272 270 260 253 254 258 259 262 258 258 254 240 231 233 236
220 226 228 235 245 252 260 270 274 278 277 278 279 279 279 278 282 282 283 282 279 274 267 267 264 266 259 258 255 253 253 256 258 252 240 235 232 235
223 225 231 239 248 257 267 273 276 277 276 275 274 274 267 264 270 279 280 275 280 279 267 264 266 264 266 258 250 253 253 255 259 249 242 240 236 233
226 229 233 242 251 260 263 271 282 281 278 274 271 266 261 262 266 269 271 275 269 280 276 261 261 261 259 257 256 256 257 257 255 244 239 238 234 234
234 235 236 239 241 248 262 278 284 288 286 277 269 264 263 262 262 260 263 267 271 269 268 273 276 275 255 252 251 254 268 268 251 243 239 240 238 230
233 233 234 236 242 252 263 274 283 282 282 276 272 269 266 263 261 263 262 262 261 262 266 262 263 268 264 261 255 270 274 264 261 242 237 235 233 233
237 236 237 238 243 253 259 270 279 277 271 271 268 262 258 260 261 264 265 267 265 262 260 264 263 258 259 259 261 267 272 269 265 257 237 233 225 230
240 239 242 244 245 247 249 259 269 267 274 275 263 253 250 259 263 263 267 272 271 272 270 267 262 255 252 257 260 264 262 259 247 257 225 227 221 223
247 245 245 246 249 247 241 248 254 254 265 267 261 260 257 254 266 270 269 267 272 276 269 265 261 260 258 255 254 257 257 256 249 251 234 228 232 227
251 247 247 246 248 244 239 247 245 248 258 261 259 253 256 253 255 265 272 274 275 274 275 265 259 260 260 259 258 255 249 243 240 241 240 237 230 233
258 255 250 250 249 245 243 238 246 252 250 258 259 249 247 250 254 263 274 276 275 273 270 263 260 256 261 265 258 254 243 233 231 234 240 246 243 227
261 261 258 255 251 245 239 236 244 245 257 262 265 262 248 248 251 262 270 277 280 270 265 262 258 255 258 267 265 252 248 244 240 243 242 243 241 231
286 276 270 265 259 251 250 247 245 247 252 258 266 275 259 248 253 257 264 269 268 267 266 265 267 248 245 251 257 256 252 254 252 246 238 235 239 231
278 281 282 279 272 266 262 256 253 250 248 252 254 258 262 262 263 259 258 262 263 269 268 252 246 245 249 255 261 260 254 244 248 250 243 232 227 235
277 270 271 276 277 272 267 263 254 251 251 252 253 251 251 257 267 267 255 253 256 256 260 258 251 250 253 256 262 257 255 254 245 247 247 238 233 238
Height
1544 1545 1547 1548 1550 1552 1553 1555 1557 1558 1559 1559 1560 1559 1559 1558 1556 1554 1554 1554 1552 1550 1551 1550 1550 1550 1549 1550 1550 1549 1547 1542 1540 1537 1535 1535 1539 1542
1539 1542 1542 1545 1548 1549 1551 1551 1551 1553 1556 1555 1556 1555 1555 1553 1552 1552 1551 1550 1548 1546 1548 1547 1548 1547 1547 1547 1544 1544 1543 1542 1538 1534 1529 1528 1533 1538
1536 1539 1539 1542 1544 1546 1547 1547 1548 1549 1550 1549 1551 1552 1551 1550 1548 1546 1546 1546 1545 1544 1544 1545 1545 1544 1543 1543 1542 1541 1540 1536 1533 1529 1524 1529 1532 1535
1529 1535 1539 1539 1541 1542 1543 1543 1544 1546 1547 1548 1548 1547 1546 1545 1544 1541 1539 1540 1539 1537 1535 1539 1538 1540 1539 1538 1539 1535 1535 1534 1532 1532 1529 1527 1529 1531
1525 1531 1534 1536 1538 1539 1538 1539 1539 1541 1541 1543 1543 1542 1541 1539 1539 1537 1536 1537 1537 1535 1533 1533 1535 1536 1534 1533 1534 1534 1533 1530 1530 1529 1531 1533 1533 1534
1521 1524 1529 1531 1534 1534 1534 1536 1536 1537 1537 1536 1537 1536 1536 1535 1535 1532 1532 1531 1531 1530 1530 1532 1531 1531 1530 1528 1527 1527 1526 1530 1530 1530 1529 1531 1533 1534
1515 1519 1523 1526 1528 1529 1531 1532 1533 1533 1533 1533 1532 1532 1532 1529 1528 1527 1527 1527 1526 1526 1525 1527 1527 1529 1527 1526 1525 1526 1522 1524 1526 1528 1528 1528 1531 1533
1510 1514 1518 1520 1523 1524 1525 1526 1527 1526 1526 1526 1524 1525 1525 1524 1525 1524 1522 1523 1521 1521 1522 1522 1521 1521 1524 1524 1526 1525 1521 1522 1521 1524 1525 1526 1528 1530
1505 1509 1513 1517 1518 1518 1518 1520 1521 1520 1518 1518 1518 1518 1519 1519 1519 1520 1519 1519 1518 1517 1516 1518 1521 1519 1518 1518 1516 1519 1521 1520 1516 1518 1521 1522 1524 1527
1500 1505 1508 1510 1512 1514 1512 1514 1515 1514 1512 1511 1514 1513 1514 1515 1515 1514 1513 1515 1513 1514 1512 1509 1513 1515 1513 1512 1509 1510 1512 1514 1514 1514 1516 1518 1520 1523
1497 1501 1502 1504 1508 1508 1507 1509 1509 1507 1507 1506 1507 1508 1510 1510 1510 1511 1511 1510 1510 1509 1510 1505 1509 1509 1510 1505 1501 1509 1506 1509 1509 1510 1512 1514 1516 1518
1494 1495 1499 1501 1503 1503 1503 1505 1505 1504 1503 1503 1504 1502 1503 1504 1504 1504 1505 1506 1505 1507 1510 1503 1501 1505 1500 1498 1504 1506 1507 1503 1504 1506 1508 1510 1512 1514
1489 1491 1495 1497 1498 1498 1499 1498 1501 1501 1500 1499 1500 1499 1499 1498 1499 1499 1499 1501 1501 1506 1507 1506 1507 1505 1501 1499 1501 1499 1504 1500 1499 1501 1504 1506 1508 1510
1485 1487 1490 1491 1494 1494 1495 1494 1495 1495 1494 1495 1496 1495 1498 1497 1497 1495 1495 1494 1492 1493 1500 1499 1494 1499 1499 1498 1495 1496 1499 1496 1496 1497 1499 1502 1504 1505
1481 1483 1484 1484 1486 1488 1490 1492 1490 1490 1491 1490 1490 1491 1491 1496 1491 1490 1493 1493 1491 1491 1490 1494 1492 1490 1495 1495 1493 1494 1495 1492 1493 1494 1495 1498 1500 1501
1475 1476 1478 1479 1478 1481 1484 1485 1486 1486 1487 1484 1488 1487 1485 1490 1487 1485 1483 1489 1485 1489 1489 1486 1486 1487 1488 1491 1490 1491 1490 1488 1489 1490 1491 1494 1495 1498
1469 1471 1470 1471 1471 1472 1475 1477 1478 1480 1478 1480 1482 1485 1483 1478 1483 1481 1480 1479 1481 1483 1484 1482 1481 1482 1483 1485 1485 1485 1484 1483 1485 1487 1488 1490 1492 1494
1459 1461 1462 1462 1464 1465 1466 1470 1471 1471 1474 1477 1476 1474 1479 1474 1475 1476 1476 1475 1476 1477 1478 1478 1477 1476 1478 1480 1481 1480 1478 1478 1481 1484 1485 1486 1488 1491
1453 1453 1453 1455 1456 1458 1458 1462 1464 1462 1467 1469 1466 1472 1469 1470 1471 1469 1468 1471 1471 1471 1473 1475 1474 1473 1474 1476 1477 1474 1472 1474 1476 1479 1482 1483 1485 1488
1450 1448 1448 1449 1452 1452 1453 1455 1457 1456 1457 1462 1463 1463 1465 1464 1464 1461 1463 1464 1464 1468 1470 1469 1470 1471 1471 1473 1471 1470 1469 1470 1472 1474 1477 1479 1481 1482
1445 1444 1443 1443 1445 1447 1448 1449 1449 1450 1451 1453 1455 1459 1458 1459 1457 1457 1459 1457 1461 1464 1465 1466 1467 1467 1466 1466 1465 1465 1466 1466 1468 1469 1471 1473 1476 1478
1438 1438 1438 1438 1438 1440 1440 1440 1441 1443 1445 1448 1450 1452 1453 1453 1451 1453 1453 1454 1458 1460 1460 1462 1463 1462 1461 1461 1461 1460 1461 1462 1464 1465 1466 1469 1472 1474
1431 1431 1431 1431 1431 1432 1431 1432 1434 1436 1439 1441 1443 1446 1447 1445 1447 1447 1448 1451 1454 1455 1456 1457 1458 1457 1456 1456 1456 1455 1456 1457 1459 1460 1462 1464 1467 1469